Flag for Germany Weather past 2 weeks in Munich, Bavaria, Germany

Now
52 °F

Cool.


Feels Like: 51 °F
Forecast: 59 / 80 °F
Wind: 3 mph from East

Location: Munich / Franz Josef Strauss Airport

Current Time: Aug 1, 2014 at 6:18:13 AM

Latest Report: Aug 1, 2014 at 5:50 AM


Visibility: 1 mi

Pressure: 29.95 "Hg

Humidity: 100%

Dew point: 52 °F

Location of MunichLocation

Historic Weather in Munich — Graph

°F

Munich temperature yesterday

Maximum temperature yesterday: 72 °F (at 2:50 PM)
Minimum temperature yesterday: 59 °F (at 11:50 PM)
Average temperature yesterday: 66 °F

Past Weeks' High & Low Weather Summary

 TemperatureHumidityPressure
High88 °F (Jul 19, 3:20 PM)100% (Jul 18, 5:50 AM)30.21 "Hg (Jul 18, 5:50 AM)
Low50 °F (Jul 24, 5:50 AM)29% (Jul 19, 6:20 PM)29.74 "Hg (Jul 29, 4:20 PM)
Average67 °F78%29.94 "Hg
* Reported Jul 17 5:20 AM — Aug 1 5:20 AM, Munich, Weather by CustomWeather, © 2014

Note: Actual official high and low records may vary slightly from our data, if they occured in-between our weather recording intervals... More about our weather records

Advertising

Munich weather history for previous 24 hours

 ConditionsComfort  
Time TempWeatherWind HumidityBarometerVisibility
5:20 AM
Aug 1
52 °FSleet. Overcast.2 mph100%29.95 "Hg3 mi
4:50 AM52 °FSleet. Overcast.2 mph100%29.95 "Hg3 mi
4:20 AM54 °FLight fog.2 mph94%29.98 "Hg5 mi
3:50 AM54 °FSleet. Overcast.1 mph94%29.98 "Hg6 mi
3:20 AM54 °FSleet. Light fog.1 mph94%29.98 "HgN/A
2:50 AM54 °FLight fog.1 mph100%29.98 "HgN/A
2:20 AM55 °FLight fog.2 mph94%29.98 "HgN/A
1:50 AM55 °FFog.3 mph94%29.98 "HgN/A
1:20 AM55 °FClear.2 mph94%29.98 "Hg10 mi
12:50 AM57 °FClear.2 mph94%30.01 "Hg10 mi
12:20 AM57 °FClear.3 mph94%30.01 "Hg10 mi
11:50 PM
Jul 31
59 °FClear.2 mph94%30.01 "Hg10 mi
11:20 PM61 °FClear.2 mph88%29.98 "Hg10 mi
10:50 PM63 °FClear.2 mph88%30.01 "Hg10 mi
10:20 PM63 °FClear.1 mph88%30.01 "Hg10 mi
9:50 PM63 °FSunny.5 mph88%29.98 "Hg10 mi
9:20 PM64 °FSunny.6 mph83%29.98 "Hg10 mi
8:50 PM66 °FSunny.1 mph78%29.98 "Hg10 mi
8:20 PM68 °FSunny.1 mph69%29.98 "Hg10 mi
7:50 PM70 °FScattered clouds.3 mph73%29.98 "HgN/A
7:20 PM72 °FScattered clouds.2 mph61%29.98 "HgN/A
6:50 PM72 °FBroken clouds.1 mph57%29.98 "HgN/A
6:20 PM72 °FBroken clouds.1 mph57%29.98 "HgN/A
5:50 PM72 °FBroken clouds.2 mph57%29.98 "HgN/A
5:20 PM72 °FPartly sunny.2 mph61%30.01 "HgN/A
4:50 PM72 °FPartly sunny.3 mph57%30.01 "HgN/A
4:20 PM72 °FPartly sunny.2 mph57%30.01 "HgN/A
3:50 PM70 °FPartly sunny.3 mph64%30.01 "HgN/A
3:20 PM72 °FPartly sunny.6 mph61%30.01 "HgN/A
2:50 PM72 °FScattered clouds.7 mph57%30.01 "HgN/A
2:20 PM70 °FScattered clouds.6 mph64%30.01 "HgN/A
1:50 PM70 °FScattered clouds.7 mph64%30.01 "HgN/A
1:20 PM70 °FScattered clouds.8 mph69%30.01 "HgN/A
12:50 PM66 °FPartly sunny.8 mph78%30.01 "HgN/A
12:20 PM66 °FPartly sunny.8 mph78%30.01 "HgN/A
11:50 AM64 °FPartly sunny.8 mph83%30.01 "HgN/A
11:20 AM64 °FPartly sunny.8 mph83%30.01 "HgN/A
10:50 AM64 °FPartly sunny.6 mph83%30.01 "HgN/A
10:20 AM63 °FBroken clouds.7 mph88%30.01 "HgN/A
9:50 AM63 °FMore clouds than sun.8 mph88%30.01 "HgN/A
9:20 AM63 °FPartly sunny.8 mph88%29.98 "HgN/A
8:50 AM63 °FBroken clouds.8 mph88%29.98 "HgN/A
8:20 AM63 °FBroken clouds.10 mph94%29.98 "HgN/A
7:50 AM63 °FMore clouds than sun.8 mph94%29.95 "HgN/A
7:20 AM63 °FBroken clouds.9 mph94%29.95 "HgN/A
6:50 AM63 °FBroken clouds.7 mph94%29.95 "HgN/A
6:20 AM63 °FPartly cloudy.9 mph94%29.95 "Hg6 mi
Weather by CustomWeather, © 2014

See weather overviewHow to use our weather pages